"Time","Temp","Dewpoint","Humidity","Pressure","Direction","Speed","Gust","Precip","PrecipRate"
"00:04:56","66.9","62.3","85.3","29.96","292","0.1","1.2","0.00","0.00"
"00:09:56","66.8","62.1","85","29.96","292","0","1.2","0.00","0.00"
"00:14:56","66.8","62.1","85","29.96","292","0","0","0.00","0.00"
"00:19:59","67","62.3","85","29.96","292","0","0","0.00","0.00"
"00:24:59","67","62.3","85","29.96","292","0.1","1.2","0.00","0.00"
"00:29:58","66.9","62.2","85","29.97","292","0","0","0.00","0.00"
"00:34:53","66.8","62.1","85","29.97","292","0","0","0.00","0.00"
"00:39:58","66.7","62.1","85.1","29.97","292","0","0","0.00","0.00"
"00:44:57","66.7","62.1","85.5","29.97","292","0","0","0.00","0.00"
"00:49:56","66.6","62.2","85.8","29.97","292","0","0","0.00","0.00"
"00:54:59","66.5","62.1","85.8","29.97","292","0","0","0.00","0.00"
"00:59:59","66.3","62","86","29.97","292","0","0","0.00","0.00"
"01:04:57","66.2","61.9","86","29.97","292","0","0","0.00","0.00"
"01:09:56","66.1","61.8","86","29.97","292","0","0","0.00","0.00"
"01:14:57","66","61.7","86","29.97","292","0","1","0.00","0.00"
"01:19:56","65.8","61.5","86","29.97","292","0","1.2","0.00","0.00"
"01:24:59","65.8","61.5","86","29.97","292","0","0","0.00","0.00"
"01:29:59","65.6","61.4","86.4","29.97","292","0","0","0.00","0.00"
"01:34:58","65.5","61.5","87","29.97","292","0","0","0.00","0.00"
"01:39:59","65.4","61.4","87","29.97","292","0","0","0.00","0.00"
"01:44:58","65.3","61.3","87","29.97","292","0","0","0.00","0.00"
"01:49:57","65.2","61.2","87","29.97","292","0","0","0.00","0.00"
"01:54:56","65.2","61.2","87","29.97","292","0","0","0.00","0.00"
"01:59:59","65.1","61.1","87","29.97","292","0","0","0.00","0.00"
"02:04:45","65.1","61.1","87","29.97","292","0","1.2","0.00","0.00"
"02:09:57","65","61","87","29.97","292","0","0","0.00","0.00"
"02:14:58","65","61","87","29.97","292","0","0","0.00","0.00"
"02:19:57","65","61.4","88","29.97","292","0","0","0.00","0.00"
"02:24:56","65","61.3","87.7","29.97","292","0","0","0.00","0.00"
"02:29:56","65","61","87","29.97","292","0","0","0.00","0.00"
"02:34:57","65","61","87","29.97","292","0","0","0.00","0.00"
"02:39:58","65","61","87","29.97","292","0","0","0.00","0.00"
"02:44:57","64.9","60.9","87","29.97","292","0","0","0.00","0.00"
"02:49:56","64.9","60.9","87","29.97","292","0","0","0.00","0.00"
"02:54:56","64.9","60.9","87","29.97","292","0","0","0.00","0.00"
"02:59:59","64.8","60.8","87","29.97","292","0","0","0.00","0.00"
"03:04:59","64.7","60.7","87","29.97","292","0","0","0.00","0.00"
"03:09:58","64.7","60.8","87.4","29.97","292","0","0","0.00","0.00"
"03:14:59","64.5","60.9","88","29.97","292","0","0","0.00","0.00"
"03:19:58","64.4","60.8","88","29.97","292","0","0","0.00","0.00"
"03:24:57","64.3","60.7","88","29.97","292","0","0","0.00","0.00"
"03:29:56","64.3","60.7","88","29.97","292","0","0","0.00","0.00"
"03:34:59","64.2","60.6","88","29.97","292","0","0","0.00","0.00"
"03:39:20","64.2","60.6","88","29.97","292","0","0","0.00","0.00"
"03:44:59","64.1","60.5","88","29.97","292","0","0","0.00","0.00"
"03:49:58","64.1","60.5","88","29.97","292","0","0","0.00","0.00"
"03:54:58","64","60.6","88.6","29.97","292","0","0","0.00","0.00"
"03:59:56","63.9","60.6","89","29.97","292","0","0","0.00","0.00"
"04:04:56","63.9","60.6","89","29.97","292","0","0","0.00","0.00"
"04:09:59","63.9","60.6","89","29.97","292","0","0","0.00","0.00"
"04:14:56","64","60.7","89","29.98","292","0","0","0.00","0.00"
"04:19:59","64.1","60.8","89","29.98","292","0","0","0.00","0.00"
"04:24:58","64","60.7","89","29.98","292","0","0","0.00","0.00"
"04:29:58","63.9","60.6","89","29.98","292","0","0","0.00","0.00"
"04:34:57","63.9","60.6","89","29.98","292","0","0","0.00","0.00"
"04:39:58","63.8","60.5","89","29.98","292","0","0","0.00","0.00"
"04:44:57","63.6","60.3","89","29.98","292","0","0","0.00","0.00"
"04:49:56","63.5","60.3","89.4","29.98","292","0","0","0.00","0.00"
"04:54:11","63.4","60.4","90","29.98","292","0","0","0.00","0.00"
"04:59:59","63.4","60.5","90.4","29.98","292","0","0","0.00","0.00"
"05:04:57","63.4","60.7","91","29.98","292","0","0","0.00","0.00"
"05:09:57","63.4","60.7","91","29.98","292","0","0","0.00","0.00"
"05:14:57","63.3","60.5","90.7","29.99","292","0","0","0.00","0.00"
"05:19:56","63.2","60.4","90.9","29.99","292","0","0","0.00","0.00"
"05:24:59","63.1","60.7","91.9","29.99","292","0","0","0.00","0.00"
"05:29:58","63.1","60.6","91.6","29.99","292","0","0","0.00","0.00"
"05:34:57","63.1","60.4","91","29.98","292","0","0","0.00","0.00"
"05:39:58","63","60.3","91","29.98","292","0","0","0.00","0.00"
"05:44:57","62.9","60.2","91","29.99","292","0","0","0.00","0.00"
"05:49:56","62.8","60.1","91","29.99","292","0","0","0.00","0.00"
"05:54:59","62.7","60.3","92","29.99","292","0","0","0.00","0.00"
"05:59:58","62.7","60.3","92","29.99","292","0","0","0.00","0.00"
"06:04:56","62.7","60.3","92","29.99","292","0","0","0.00","0.00"
"06:09:56","62.6","60.2","92","29.99","292","0","0","0.00","0.00"
"06:14:57","62.5","60.1","92","30.00","292","0","0","0.00","0.00"
"06:19:57","62.4","60.3","93","30.00","292","0","0","0.00","0.00"
"06:24:56","62.3","60.2","93","30.00","292","0","0","0.00","0.00"
"06:29:59","62.4","60.3","93","30.00","292","0","0","0.00","0.00"
"06:34:43","62.4","60.6","93.8","30.00","292","0","0","0.00","0.00"
"06:39:56","62.5","60.5","93.1","30.00","292","0","0","0.00","0.00"
"06:44:59","62.5","60.4","93","30.00","292","0","0","0.00","0.00"
"06:49:58","62.6","60.5","93","30.00","292","0","0","0.00","0.00"
"06:54:58","62.6","60.5","93","30.00","292","0","0","0.00","0.00"
"06:59:57","62.6","60.5","93","30.01","292","0","0","0.00","0.00"
"07:04:59","62.7","60.6","93","30.01","292","0","0","0.00","0.00"
"07:09:58","62.8","60.7","93","30.01","292","0","0","0.00","0.00"
"07:14:59","63","60.9","93","30.02","292","0","1.2","0.00","0.00"
"07:19:57","63.4","61.3","93","30.02","292","0.1","2","0.00","0.00"
"07:24:56","63.8","61.6","92.5","30.02","293","0.9","3.5","0.00","0.00"
"07:29:58","64.4","61.9","91.5","30.02","304","1.3","4","0.00","0.00"
"07:34:56","65.1","62.1","89.9","30.02","308","1","2.3","0.00","0.00"
"07:39:57","65.7","62.2","88.4","30.02","308","0.3","2.3","0.00","0.00"
"07:44:59","66.3","62.5","87.9","30.03","308","0.3","2.3","0.00","0.00"
"07:49:58","66.7","62.7","87.2","30.03","308","0","0","0.00","0.00"
"07:54:57","67.1","63","86.8","30.03","308","0.1","3","0.00","0.00"
"07:59:56","67.6","63.1","85.7","30.03","308","0.5","2.3","0.00","0.00"
"08:04:58","68.1","63.3","84.8","30.03","308","0","0","0.00","0.00"
"08:09:57","68.5","63.8","84.7","30.03","308","0.1","1.2","0.00","0.00"
"08:14:57","69.1","63.8","83.4","30.04","308","0.4","3.5","0.00","0.00"
"08:19:56","69.6","63.7","81.5","30.04","309","1.9","4","0.00","0.00"
"08:24:59","70.1","64","81.1","30.04","312","1.6","4","0.00","0.00"
"08:29:57","70.5","64.2","80.5","30.04","315","0.9","4","0.00","0.00"
"08:34:56","70.8","64.5","80.7","30.04","311","1.1","3.5","0.00","0.00"
"08:39:56","71.1","64.7","80.2","30.04","311","0.9","3.5","0.00","0.00"
"08:44:59","71.5","65.3","80.9","30.05","311","0.9","4","0.00","0.00"
"08:49:57","71.9","64.9","78.4","30.05","311","2.6","7","0.00","0.00"
"08:54:59","72.3","65.1","78.1","30.05","324","2.2","5","0.00","0.00"
"08:59:58","72.8","65.6","78.3","30.05","340","2.3","6","0.00","0.00"
"09:04:56","73.3","65.8","77.6","30.05","347","1.5","4","0.00","0.00"
"09:09:59","73.9","66.3","77.1","30.05","346","0.9","3.5","0.00","0.00"
"09:14:59","74.4","66.2","75.7","30.05","334","1.3","4","0.00","0.00"
"09:19:58","75","66.5","75","30.05","349","2.1","7","0.00","0.00"
"09:24:56","75.5","66.7","74.5","30.05","346","1.5","4.6","0.00","0.00"
"09:29:58","75.9","67","74","30.06","348","2.1","6","0.00","0.00"
"09:34:57","76.2","67","73.1","30.06","349","1.8","6","0.00","0.00"
"09:39:57","76.4","67.1","72.9","30.06","345","3.3","7","0.00","0.00"
"09:44:56","76.5","67.1","72.7","30.06","300","1.9","6.9","0.00","0.00"
"09:49:58","76.7","67.4","72.9","30.06","318","1.6","4","0.00","0.00"
"09:54:56","77","67.2","71.7","30.06","345","2.1","10","0.00","0.00"
"09:59:59","77.3","67.3","71.2","30.06","335","2.1","10.4","0.00","0.00"
"10:04:57","77.5","67.3","70.8","30.06","343","2.6","7","0.00","0.00"
"10:09:59","77.6","67.1","70.3","30.06","297","1.8","5","0.00","0.00"
"10:14:56","77.8","67.5","70.7","30.06","327","2.2","6","0.00","0.00"
"10:19:58","78.1","68","71.3","30.06","335","3","7","0.00","0.00"
"10:24:56","78.4","67.6","69.7","30.06","341","2.1","7","0.00","0.00"
"10:29:58","78.6","67.8","69.5","30.06","338","3","7","0.00","0.00"
"10:34:57","78.7","67.3","68.1","30.06","22","2.4","9.2","0.00","0.00"
"10:39:58","79","67.5","67.9","30.06","337","2.1","6.9","0.00","0.00"
"10:44:58","79.2","67.5","67.4","30.07","340","1.9","6","0.00","0.00"
"10:49:58","79.4","67.8","67.7","30.07","339","1.8","6","0.00","0.00"
"10:54:58","79.9","68","67.2","30.07","336","2.6","6","0.00","0.00"
"10:59:58","80","67","64.7","30.07","344","4.5","10.4","0.00","0.00"
"11:04:57","80","67.3","65.3","30.06","328","2.3","5.8","0.00","0.00"
"11:09:57","80.1","66.9","64.1","30.06","317","3.5","8.1","0.00","0.00"
"11:14:59","80.2","66.9","64","30.06","329","1.1","5","0.00","0.00"
"11:19:58","80.5","67.1","63.8","30.06","295","2.6","6","0.00","0.00"
"11:24:58","80.6","66.8","63","30.06","342","2.7","5.8","0.00","0.00"
"11:29:58","80.8","67.9","65","30.06","343","2.1","7","0.00","0.00"
"11:34:57","81.2","67.5","63.2","30.06","342","2.7","6.9","0.00","0.00"
"11:39:59","81.4","68.1","64.2","30.06","333","2.1","6","0.00","0.00"
"11:44:59","81.7","68.6","64.5","30.06","296","1.7","5.8","0.00","0.00"
"11:49:58","82.1","68.5","63.4","30.06","302","2.2","6","0.00","0.00"
"11:54:58","82.2","68.5","63.3","30.06","312","2.1","7","0.00","0.00"
"11:59:58","82.4","68.5","62.9","30.06","293","2.2","5","0.00","0.00"
"12:04:57","82.8","69","63.2","30.05","291","3","10.4","0.00","0.00"
"12:09:57","83.1","68.9","62.5","30.05","331","1","5","0.00","0.00"
"12:14:59","83.2","68.2","60.5","30.05","276","2.1","5","0.00","0.00"
"12:19:59","83.5","69.3","62.5","30.05","272","1.1","6","0.00","0.00"
"12:24:59","83.7","68.9","61.2","30.05","347","2.5","6","0.00","0.00"
"12:29:59","84.1","69.7","62","30.05","43","0.5","2.3","0.00","0.00"
"12:34:59","84.4","69","60.1","30.04","348","2.7","8.1","0.00","0.00"
"12:39:57","84.3","67.7","57.7","30.04","338","2.3","9","0.00","0.00"
"12:44:57","84.1","68.4","59.4","30.04","332","3","9.2","0.00","0.00"
"12:49:56","84.2","68.7","59.9","30.04","315","2.2","4","0.00","0.00"
"12:54:56","84.4","68.9","59.8","30.04","320","1.9","6","0.00","0.00"
"12:59:56","84.7","69","59.5","30.04","333","2.5","7","0.00","0.00"
"13:04:59","84.8","68.4","58.2","30.04","318","1.8","5","0.00","0.00"
"13:09:56","85","68","56.9","30.04","277","2.4","6","0.00","0.00"
"13:14:57","85","68.6","58","30.04","351","2.9","9.2","0.00","0.00"
"13:19:57","85.1","69.1","58.8","30.04","5","1.3","5","0.00","0.00"
"13:24:57","85.2","68.4","57.4","30.04","347","2.6","7","0.00","0.00"
"13:29:57","85.4","67.9","55.9","30.04","304","2.7","9.2","0.00","0.00"
"13:34:57","85.7","67.6","54.9","30.04","317","2.6","6.9","0.00","0.00"
"13:39:59","85.8","68.4","56.3","30.04","261","2.2","6","0.00","0.00"
"13:44:58","86","67.4","54.1","30.04","343","2.7","10","0.00","0.00"
"13:49:58","86.1","67.5","54","30.03","288","2.7","5","0.00","0.00"
"13:54:58","86.3","67.9","54.4","30.03","264","2.5","7","0.00","0.00"
"13:59:57","86.5","67.3","53","30.03","333","3.3","10.4","0.00","0.00"
"14:04:57","86.6","66.5","51.4","30.03","342","3.7","10.4","0.00","0.00"
"14:09:57","86.7","66.8","51.8","30.03","277","3.2","9.2","0.00","0.00"
"14:14:58","86.4","66.2","51.2","30.03","318","3.3","9.2","0.00","0.00"
"14:19:58","86.3","66.4","51.7","30.03","224","2.9","6.9","0.00","0.00"
"14:24:57","86.5","67.3","52.9","30.03","291","2.8","7","0.00","0.00"
"14:29:57","86.7","67.1","52.3","30.03","309","2.7","6.9","0.00","0.00"
"14:34:57","86.9","66.6","51.1","30.03","276","2.3","6","0.00","0.00"
"14:39:59","86.9","67.2","52","30.03","248","2","5.8","0.00","0.00"
"14:44:58","87.1","67.4","52.2","30.03","324","2.8","10.4","0.00","0.00"
"14:49:58","87.2","67.7","52.7","30.03","336","2.6","8.1","0.00","0.00"
"14:54:58","87.2","66.1","49.7","30.03","355","2.2","4.6","0.00","0.00"
"14:59:58","87.3","66.8","50.7","30.03","220","2.4","6","0.00","0.00"
"15:04:58","87.5","67.3","51.2","30.02","329","3.3","7","0.00","0.00"
"15:09:59","87.6","66.8","50.2","30.02","323","3.1","7","0.00","0.00"
"15:14:56","87.6","66.8","50.3","30.02","346","2.5","6.9","0.00","0.00"
"15:19:56","88","67.6","51","30.01","297","2.6","7","0.00","0.00"
"15:24:56","87.9","66.8","49.8","30.01","337","3.3","7","0.00","0.00"
"15:29:56","87.6","66.7","50","30.01","333","2.4","9.2","0.00","0.00"
"15:34:56","87.4","66.5","49.9","30.01","251","2.5","9.2","0.00","0.00"
"15:39:57","87.4","67.2","51.3","30.01","321","1.7","5","0.00","0.00"
"15:44:57","87.4","67.7","52.1","30.01","343","1.6","6","0.00","0.00"
"15:49:57","87.6","69.1","54.4","30.01","336","1.5","6","0.00","0.00"
"15:54:57","87.7","67.7","51.7","30.01","336","2.6","7","0.00","0.00"
"15:59:56","87.7","67.1","50.7","30.01","332","1.6","6","0.00","0.00"
"16:04:55","87.9","68","52","30.01","341","1.7","6","0.00","0.00"
"16:09:56","88.1","68.1","51.8","30.01","14","1.4","3.5","0.00","0.00"
"16:14:57","88.1","67.9","51.3","30.01","334","3","6","0.00","0.00"
"16:19:57","88","67.6","51","30.01","333","2.5","4.6","0.00","0.00"
"16:24:57","88.2","68.6","52.4","30.01","333","1.3","4","0.00","0.00"
"16:29:57","88.2","67.9","51.1","30.01","313","2.1","4","0.00","0.00"
"16:34:57","88.1","67.4","50.5","30.00","319","3.1","7","0.00","0.00"
"16:39:58","88","66.9","49.8","30.00","326","1.5","4.6","0.00","0.00"
"16:44:58","88.1","67.1","50.1","30.00","312","2","5","0.00","0.00"
"16:49:58","87.8","66.5","49.4","30.00","333","2.4","6","0.00","0.00"
"16:54:58","87.8","68","52.1","30.00","327","1.3","7","0.00","0.00"
"16:59:57","87.9","66.8","49.7","30.00","225","1.9","7","0.00","0.00"
"17:04:57","87.9","67.8","51.5","30.00","242","1.7","4","0.00","0.00"
"17:09:57","88","68","51.7","30.00","339","1","4","0.00","0.00"
"17:14:59","88.4","68","51","30.00","339","0.8","3.5","0.00","0.00"
"17:19:59","88.9","68.7","51.5","30.00","210","1.4","5","0.00","0.00"
"17:24:59","89.1","68","50","30.00","178","1.8","4","0.00","0.00"
"17:29:59","88.8","68","50.4","30.00","240","1.8","4","0.00","0.00"
"17:34:59","88.6","67.4","49.8","30.00","254","1.3","4","0.00","0.00"
"17:39:56","88","68.3","52.1","30.00","257","0.3","2.3","0.00","0.00"
"17:44:56","87.9","67.8","51.5","30.00","257","1.1","2.3","0.00","0.00"
"17:49:56","87.9","67.2","50.4","30.00","302","1.8","5","0.00","0.00"
"17:54:56","87.7","66.9","50.3","30.00","322","1.9","5","0.00","0.00"
"17:59:56","87.4","67","50.8","30.00","322","1","3.5","0.00","0.00"
"18:04:56","87.3","67.1","51.2","30.00","324","1.5","4","0.00","0.00"
"18:09:56","87.3","67.5","51.9","30.00","327","1.4","3.5","0.00","0.00"
"18:14:58","87.3","67.8","52.6","30.00","327","0.3","2.3","0.00","0.00"
"18:19:58","87.3","67.6","52.1","30.00","327","1.2","3.5","0.00","0.00"
"18:24:58","87.2","67.2","51.7","30.00","329","1.7","5","0.00","0.00"
"18:29:58","86.8","66.8","51.5","30.00","330","1.6","4","0.00","0.00"
"18:34:58","86.4","67","52.5","30.00","330","1.2","3.5","0.00","0.00"
"18:39:59","86","66.5","52.2","30.00","335","1.7","4","0.00","0.00"
"18:44:59","85.6","67","53.8","30.00","336","1.1","3.5","0.00","0.00"
"18:49:59","85.3","67","54.4","30.00","336","0.9","3.5","0.00","0.00"
"18:54:59","85","67.2","55.3","30.00","336","0.4","2.3","0.00","0.00"
"18:59:59","84.6","66.9","55.4","30.00","336","1.1","3.5","0.00","0.00"
"19:04:58","84.2","66.6","55.5","30.00","336","0.9","3.5","0.00","0.00"
"19:09:59","83.9","66.3","55.8","30.00","336","0.7","3.5","0.00","0.00"
"19:14:57","83.5","66.4","56.5","30.00","336","0.9","3.5","0.00","0.00"
"19:19:57","83.1","66.3","57","30.00","336","0.2","2.3","0.00","0.00"
"19:24:57","82.7","66.4","58","30.00","336","0.6","2.3","0.00","0.00"
"19:29:58","82.2","66.5","59.2","30.00","336","0.1","2.3","0.00","0.00"
"19:34:59","81.7","66.8","60.8","30.00","336","0","1.2","0.00","0.00"
"19:39:57","81.2","67.1","62.4","30.00","336","0","0","0.00","0.00"
"19:44:58","80.7","66.8","62.7","30.00","336","0","1.2","0.00","0.00"
"19:49:59","80.1","66.8","64","30.00","336","0","0","0.00","0.00"
"19:54:59","79.4","66.5","64.7","30.00","336","0","0","0.00","0.00"
"19:59:59","78.7","66.8","67","30.00","336","0.1","1.2","0.00","0.00"
"20:04:57","78.1","67.1","69.1","30.00","336","0.6","2.3","0.00","0.00"
"20:09:56","77.8","67.4","70.5","30.00","336","0.9","2.3","0.00","0.00"
"20:14:57","77.5","67.6","71.6","30.01","336","0.1","1.2","0.00","0.00"
"20:19:56","77.1","67.4","72","30.01","336","0","0","0.00","0.00"
"20:24:59","76.6","67.2","72.9","30.01","336","0","0","0.00","0.00"
"20:29:58","76.2","67.5","74.7","30.01","336","0","0","0.00","0.00"
"20:34:58","75.9","67.8","76","30.01","336","0","1.2","0.00","0.00"
"20:39:59","75.5","67.9","77.2","30.01","336","0","0","0.00","0.00"
"20:44:58","75.3","67.9","77.8","30.01","336","0","0","0.00","0.00"
"20:49:57","74.9","67.3","77.3","30.01","336","0","0","0.00","0.00"
"20:54:56","74.5","67.4","78.6","30.01","336","0","0","0.00","0.00"
"20:59:59","74.2","67","78.3","30.02","336","0","0","0.00","0.00"
"21:04:57","73.8","66.8","78.7","30.02","336","0","0","0.00","0.00"
"21:09:56","73.5","66.9","79.9","30.02","336","0","0","0.00","0.00"
"21:14:57","73.2","66.9","80.7","30.03","336","0","0","0.00","0.00"
"21:19:56","73","67.2","81.9","30.03","336","0","0","0.00","0.00"
"21:24:59","73","67.5","83.1","30.03","336","0","0","0.00","0.00"
"21:29:58","73","67.8","83.9","30.03","336","0","0","0.00","0.00"
"21:34:57","72.8","67.4","83.4","30.03","336","0","0","0.00","0.00"
"21:39:58","72.6","67.5","84","30.03","336","0","0","0.00","0.00"
"21:44:57","72.5","67.5","84.3","30.03","336","0","0","0.00","0.00"
"21:49:56","72.3","67.5","85","30.03","336","0.1","1.2","0.00","0.00"
"21:54:56","72.1","67.3","85","30.03","336","0","0","0.00","0.00"
"21:59:59","71.9","67","84.8","30.04","336","0.1","1.2","0.00","0.00"
"22:04:57","71.6","66.8","85","30.04","336","0","0","0.00","0.00"
"22:09:56","71.3","66.6","85","30.04","336","0","0","0.00","0.00"
"22:14:57","71","66.6","85.9","30.04","336","0","0","0.00","0.00"
"22:19:56","70.8","66.5","86.2","30.04","336","0","0","0.00","0.00"
"22:24:59","70.7","66.7","87.3","30.04","336","0.4","2.3","0.00","0.00"
"22:29:58","70.7","67","88","30.05","336","0","1.2","0.00","0.00"
"22:34:57","70.7","66.6","87.1","30.05","336","0","1.2","0.00","0.00"
"22:39:58","70.7","66.8","87.6","30.05","336","0.4","2.3","0.00","0.00"
"22:44:57","70.7","67","88","30.05","336","0.2","1.2","0.00","0.00"
"22:49:55","70.6","66.9","88","30.05","336","0","0","0.00","0.00"
"22:54:55","70.5","67.1","88.8","30.05","336","0","0","0.00","0.00"
"22:59:57","70.4","67","89","30.05","340","0","0","0.00","0.00"
"23:04:56","70.3","66.9","88.9","30.05","340","0","0","0.00","0.00"
"23:09:56","70","66.3","88.1","30.05","340","0","0","0.00","0.00"
"23:14:57","69.7","66.3","89.1","30.06","340","0","0","0.00","0.00"
"23:19:56","69.6","66.4","90","30.06","340","0","0","0.00","0.00"
"23:24:59","69.4","66.3","90","30.06","340","0","0","0.00","0.00"
"23:29:58","69.4","66.5","90.6","30.06","340","0.1","1.2","0.00","0.00"
"23:34:57","69.3","66.6","91","30.06","340","0","0","0.00","0.00"
"23:39:58","69.2","66.5","91","30.06","340","0","0","0.00","0.00"
"23:44:57","68.9","66.2","91","30.06","340","0","0","0.00","0.00"
"23:49:56","68.8","66.1","91","30.06","340","0","0","0.00","0.00"
